Location: Robert Brownlee Observatory
(34.2308°N, 117.2089°W)
Time: 21:41:32
(UTC-07:00)

Cosmos 1943 - Visible Passes

Search period start: 02 September 2014 00:00
Search period end: 12 September 2014 00:00
Orbit: 834 x 850 km, 71.0° (Epoch: 02 September)

Date Brightness Start Highest point End Pass type
(mag) Time Alt. Az. Time Alt. Az. Time Alt. Az.
06 Sep 6.3 05:57:20 10° ESE 05:59:43 13° E 06:02:07 10° ENE visible
07 Sep 6.4 05:42:53 10° ESE 05:44:55 12° E 05:46:56 10° ENE visible
08 Sep 6.4 05:28:33 10° ESE 05:30:07 11° E 05:31:40 10° E visible
09 Sep 6.5 05:14:28 10° ESE 05:15:18 10° E 05:16:09 10° E visible
